Find Kosmos-700

NORAD ID: 7593 Int'l Des: 1974-105 Owner: OKB10 Country: SU operational
LEOCIRCULARPOLAR

リアルタイム位置

3D地球を読み込み中...

Kosmos-700について

説明を読み込み中...

次回通過

Passes for default location (London). Set your location on the main map for personalized predictions.

高度履歴

Loading altitude history...

軌道要素

1 07593U 74105A 26120.86543007 .00000051 00000-0 36124-4 0 9991
2 07593 82.9494 83.1250 0025940 74.9208 345.8819 13.76982642578771
Epoch: Apr 30, 2026 • Age: 9 hours

現在のステータス

高度 964.6 km
速度 7.38 km/s
衛星直下点 28.90°N, 147.54°E
タイプ other

Most Searched